Home   Weather   Málaga   Past weeks

Flag for Spain Past Weather in Málaga, Spain — Yesterday and Last 2 Weeks

66 °F

Passing clouds.

Feels Like: 66 °F
Forecast: 61 / 75 °F
Wind: No wind

Location: Malaga / Aeropuerto

Current Time: Oct 23, 2016 at 10:32:05 PM

Latest Report: Oct 23, 2016 at 9:30 PM

Visibility: N/A

Pressure: 29.80 "Hg

Humidity: 83%

Dew Point: 61 °F

Location of MálagaLocation

Past Weather in Málaga — Graph


Málaga Temperature Yesterday

Maximum temperature yesterday: 72 °F (at 12:30 PM)
Minimum temperature yesterday: 66 °F (at 12:00 AM)
Average temperature yesterday: 69 °F

High & Low Weather Summary for the Past Weeks

High84 °F (Oct 11, 5:30 PM)100% (Oct 12, 3:00 PM)30.24 "Hg (Oct 12, 3:00 PM)
Low54 °F (Oct 15, 8:30 AM)28% (Oct 11, 7:30 PM)29.59 "Hg (Oct 13, 5:30 AM)
Average67 °F78%29.95 "Hg
* Reported Oct 8 9:00 PM — Oct 23 9:00 PM, Málaga, Weather by CustomWeather, © 2016

Note: Actual official high and low records may vary slightly from our data, if they occured in-between our weather recording intervals... More about our weather records


Málaga Weather History for the Previous 24 Hours

Scroll right to see more
Time TempWeatherWind HumidityBarometerVisibility
9:00 PM
Sun, Oct 23
66 °FPassing clouds.2 mph88%29.77 "HgN/A
8:30 PM68 °FPassing clouds.3 mph78%29.77 "HgN/A
8:00 PM66 °FPassing clouds.6 mph88%29.77 "HgN/A
7:30 PM66 °FPassing clouds.6 mph88%29.77 "HgN/A
7:00 PM68 °FScattered clouds.7 mph88%29.74 "HgN/A
6:30 PM68 °FScattered clouds.6 mph88%29.74 "HgN/A
6:00 PM70 °FScattered clouds.6 mph78%29.74 "HgN/A
5:30 PM70 °FBroken clouds.3 mph83%29.77 "HgN/A
5:00 PM68 °FBroken clouds.No wind88%29.77 "HgN/A
4:30 PM68 °FRain. Broken clouds.8 mph88%29.77 "Hg2 mi
4:00 PM70 °FBroken clouds.5 mph83%29.74 "HgN/A
3:30 PM70 °FScattered clouds.2 mph83%29.77 "HgN/A
3:00 PM68 °FScattered clouds.No wind88%29.77 "HgN/A
2:30 PM70 °FLight rain. Partly sunny.3 mph88%29.77 "Hg4 mi
2:00 PM70 °FBroken clouds.7 mph83%29.77 "HgN/A
1:30 PM72 °FBroken clouds.7 mph78%29.80 "HgN/A
1:00 PM70 °FBroken clouds.7 mph78%29.80 "HgN/A
12:30 PM72 °FScattered clouds.3 mph73%29.80 "HgN/A
12:00 PM70 °FScattered clouds.7 mph83%29.80 "HgN/A
11:30 AM72 °FScattered clouds.6 mph78%29.80 "HgN/A
11:00 AM72 °FScattered clouds.8 mph73%29.80 "HgN/A
10:30 AM72 °FScattered clouds.3 mph73%29.80 "HgN/A
10:00 AM70 °FScattered clouds.3 mph78%29.80 "HgN/A
9:30 AM68 °FScattered clouds.3 mph83%29.80 "HgN/A
9:00 AM68 °FScattered clouds.7 mph83%29.80 "HgN/A
8:30 AM68 °FPassing clouds.8 mph78%29.80 "HgN/A
8:00 AM68 °FPassing clouds.7 mph78%29.80 "HgN/A
7:30 AM68 °FPassing clouds.9 mph78%29.80 "HgN/A
7:00 AM70 °FPassing clouds.10 mph73%29.77 "HgN/A
6:30 AM68 °FLight rain. Passing clouds.7 mph83%29.80 "HgN/A
6:00 AM68 °FLight rain. Passing clouds.6 mph83%29.80 "HgN/A
5:30 AM66 °FLight rain. Passing clouds.1 mph94%29.80 "HgN/A
5:00 AM66 °FLight rain. Passing clouds.7 mph94%29.80 "HgN/A
4:30 AM68 °FPassing clouds.5 mph83%29.80 "HgN/A
4:00 AM68 °FPassing clouds.8 mph83%29.80 "HgN/A
3:30 AM68 °FPassing clouds.8 mph83%29.83 "HgN/A
3:00 AM68 °FPassing clouds.8 mph83%29.83 "HgN/A
2:30 AM68 °FPassing clouds.7 mph88%29.83 "HgN/A
2:00 AM68 °FPassing clouds.2 mph83%29.83 "HgN/A
1:30 AM68 °FPassing clouds.8 mph83%29.83 "HgN/A
1:00 AM66 °FPassing clouds.6 mph88%29.83 "HgN/A
12:30 AM66 °FLight rain. Partly cloudy.2 mph88%29.83 "Hg5 mi
12:00 AM68 °FPassing clouds.6 mph83%29.83 "HgN/A
11:30 PM
Sat, Oct 22
68 °FPartly cloudy.5 mph83%29.86 "HgN/A
11:00 PM68 °FPartly cloudy.8 mph94%29.83 "HgN/A
10:30 PM68 °FPartly cloudy.6 mph88%29.83 "HgN/A
10:00 PM68 °FPassing clouds.6 mph94%29.83 "HgN/A
Weather by CustomWeather, © 2016

See weather overviewHow to use our weather pages